Change the Weather History Date:

Wednesday, April 3, 2013

  Actual Average Record
Temperature  
Mean Temperature 24 °F -  
Max Temperature 39 °F 46 °F 74 °F (1921)
Min Temperature 10 °F 22 °F -6 °F (1954)
Degree Days  
Heating Degree Days 40    
Moisture  
Dew Point 12 °F    
Average Humidity 53    
Maximum Humidity 70    
Minimum Humidity 38    
Precipitation  
Precipitation 0.00 in - - ()
Sea Level Pressure  
Sea Level Pressure 30.17 in    
Wind  
Wind Speed 8 mph (South)    
Max Wind Speed 24 mph    
Max Gust Speed 37 mph    
Visibility 10 miles    
Events      
Averages and records for this station are not official NWS values.
T = Trace of Precipitation, MM = Missing Value Source: NWS Daily Summary

Daily Weather History Graph

Daily Weather History Graph

Search for Another Location

Airport or City:

Trip Planner

Search our weather history database for the weather conditions in past years. The results will help you decide how hot, cold, wet, or windy it might be!

Date:

Astronomy

Apr. 03, 2013 Rise Set
Actual Time 6:48 AM CDT 7:46 PM CDT
Civil Twilight 6:17 AM CDT 8:17 PM CDT
Nautical Twilight 5:40 AM CDT 8:55 PM CDT
Astronomical Twilight 5:01 AM CDT 9:34 PM CDT
Moon 2:55 AM CDT (4/3) 12:34 PM CDT (4/3)
Length of Visible Light 14h 00m
Length of Day
12h 58m
Last Quarter, 44% of the Moon is Illuminated
Apr 3
Last Quarter
Apr 10
New
Apr 18
First Quarter
Apr 25
Full
May 2
Last Quarter

Hourly Weather History & Observations

Time (CDT) Temp. Windchill Dew Point Humidity Pressure Visibility Wind Dir Wind Speed Gust Speed Precip Events Conditions
12:15 AM 17.6 °F - 3.2 °F 53% 30.32 in 10.0 mi Calm Calm - N/A   Clear
12:35 AM 17.6 °F - 3.2 °F 53% 30.32 in 10.0 mi Calm Calm - N/A   Clear
12:55 AM 17.6 °F - 5.0 °F 58% 30.33 in 10.0 mi Calm Calm - N/A   Clear
1:15 AM 15.8 °F - 3.2 °F 58% 30.33 in 10.0 mi Calm Calm - N/A   Clear
1:35 AM 15.8 °F - 1.4 °F 53% 30.33 in 10.0 mi Calm Calm - N/A   Clear
1:55 AM 15.8 °F - 3.2 °F 58% 30.33 in 10.0 mi Calm Calm - N/A   Clear
2:15 AM 15.8 °F - 1.4 °F 53% 30.32 in 10.0 mi Calm Calm - N/A   Clear
2:35 AM 12.2 °F - 1.4 °F 62% 30.31 in 10.0 mi Calm Calm - N/A   Clear
2:55 AM 12.2 °F 6.1 °F 1.4 °F 62% 30.31 in 10.0 mi South 3.5 mph - N/A   Clear
3:15 AM 12.2 °F 4.3 °F 3.2 °F 67% 30.30 in 10.0 mi South 4.6 mph - N/A   Clear
3:35 AM 10.4 °F 4.0 °F 1.4 °F 67% 30.31 in 10.0 mi SSE 3.5 mph - N/A   Clear
3:55 AM 10.4 °F 2.2 °F 1.4 °F 67% 30.31 in 10.0 mi South 4.6 mph - N/A   Clear
4:15 AM 12.2 °F 6.1 °F 1.4 °F 62% 30.31 in 10.0 mi SSE 3.5 mph - N/A   Clear
4:35 AM 12.2 °F 4.3 °F 1.4 °F 62% 30.31 in 10.0 mi SSE 4.6 mph - N/A   Clear
4:55 AM 12.2 °F 4.3 °F 1.4 °F 62% 30.31 in 10.0 mi SSE 4.6 mph - N/A   Clear
5:15 AM 14.0 °F 6.5 °F -0.4 °F 53% 30.31 in 10.0 mi SSE 4.6 mph - N/A   Clear
5:35 AM 14.0 °F 6.5 °F -0.4 °F 53% 30.31 in 10.0 mi SSE 4.6 mph - N/A   Clear
5:55 AM 12.2 °F 6.1 °F 1.4 °F 62% 30.31 in 10.0 mi SSE 3.5 mph - N/A   Clear
6:15 AM 12.2 °F 6.1 °F 1.4 °F 62% 30.31 in 10.0 mi SSE 3.5 mph - N/A   Clear
6:35 AM 12.2 °F 2.9 °F -0.4 °F 57% 30.31 in 10.0 mi SSE 5.8 mph - N/A   Clear
6:55 AM 14.0 °F 3.9 °F -0.4 °F 53% 30.31 in 10.0 mi SSE 6.9 mph - N/A   Clear
7:15 AM 15.8 °F 5.1 °F -0.4 °F 49% 30.30 in 10.0 mi SSE 8.1 mph - N/A   Clear
7:35 AM 17.6 °F 6.4 °F 1.4 °F 49% 30.30 in 10.0 mi SSE 9.2 mph - N/A   Clear
7:55 AM 17.6 °F 6.4 °F -0.4 °F 45% 30.30 in 10.0 mi SSE 9.2 mph - N/A   Clear
8:15 AM 19.4 °F 7.2 °F 1.4 °F 46% 30.30 in 10.0 mi SSE 11.5 mph - N/A   Clear
8:35 AM 19.4 °F 6.0 °F 1.4 °F 46% 30.30 in 10.0 mi SSE 13.8 mph - N/A   Clear
8:55 AM 21.2 °F 7.8 °F 3.2 °F 46% 30.30 in 10.0 mi South 15.0 mph - N/A   Clear
9:15 AM 23.0 °F 11.7 °F 3.2 °F 43% 30.29 in 10.0 mi SSE 11.5 mph - N/A   Clear
9:35 AM 24.8 °F 14.0 °F 6.8 °F 46% 30.29 in 10.0 mi SSE 11.5 mph - N/A   Clear
9:55 AM 26.6 °F 14.3 °F 6.8 °F 43% 30.29 in 10.0 mi SSE 16.1 mph 19.6 mph N/A   Clear
10:15 AM 28.4 °F 17.0 °F 8.6 °F 43% 30.28 in 10.0 mi SSE 15.0 mph 20.7 mph N/A   Clear
10:35 AM 30.2 °F 18.5 °F 8.6 °F 40% 30.28 in 10.0 mi South 17.3 mph 21.9 mph N/A   Clear
10:55 AM 30.2 °F 17.4 °F 8.6 °F 40% 30.27 in 10.0 mi South 20.7 mph 24.2 mph N/A   Clear
11:15 AM 30.2 °F 16.8 °F 8.6 °F 40% 30.27 in 10.0 mi South 23.0 mph 28.8 mph N/A   Clear
11:35 AM 32.0 °F 19.2 °F 10.4 °F 41% 30.25 in 10.0 mi South 23.0 mph 28.8 mph N/A   Clear
11:55 AM 33.8 °F 21.9 °F 12.2 °F 41% 30.25 in 10.0 mi South 21.9 mph 27.6 mph N/A   Clear
12:15 PM 33.8 °F 22.8 °F 10.4 °F 38% 30.23 in 10.0 mi SSE 18.4 mph - N/A   Clear
12:35 PM 33.8 °F 22.5 °F 12.2 °F 41% 30.22 in 10.0 mi South 19.6 mph 24.2 mph N/A   Clear
12:55 PM 33.8 °F 23.2 °F 14.0 °F 44% 30.20 in 10.0 mi SSE 17.3 mph - N/A   Clear
1:15 PM 35.6 °F 25.9 °F 12.2 °F 38% 30.18 in 10.0 mi SSE 16.1 mph 20.7 mph N/A   Clear
1:35 PM 35.6 °F 24.8 °F 15.8 °F 44% 30.17 in 10.0 mi South 19.6 mph 26.5 mph N/A   Clear
1:55 PM 35.6 °F 25.2 °F 15.8 °F 44% 30.15 in 10.0 mi South 18.4 mph 27.6 mph N/A   Clear
2:15 PM 37.4 °F 27.5 °F 15.8 °F 41% 30.14 in 10.0 mi SSE 18.4 mph 26.5 mph N/A   Clear
2:35 PM 37.4 °F 27.2 °F 15.8 °F 41% 30.13 in 10.0 mi South 19.6 mph 27.6 mph N/A   Clear
2:55 PM 37.4 °F 26.4 °F 17.6 °F 45% 30.13 in 10.0 mi South 23.0 mph 27.6 mph N/A   Clear
3:15 PM 37.4 °F 26.4 °F 17.6 °F 45% 30.12 in 10.0 mi South 23.0 mph 29.9 mph N/A   Clear
3:35 PM 37.4 °F 26.1 °F 17.6 °F 45% 30.10 in 10.0 mi South 24.2 mph 32.2 mph N/A   Clear
3:55 PM 37.4 °F 27.2 °F 17.6 °F 45% 30.09 in 10.0 mi South 19.6 mph 28.8 mph N/A   Clear
4:15 PM 37.4 °F 26.6 °F 19.4 °F 48% 30.08 in 10.0 mi South 21.9 mph 27.6 mph N/A   Clear
4:35 PM 39.2 °F 29.8 °F 19.4 °F 45% 30.06 in 10.0 mi South 18.4 mph 26.5 mph N/A   Clear
4:55 PM 39.2 °F 28.5 °F 19.4 °F 45% 30.06 in 10.0 mi South 24.2 mph 29.9 mph N/A   Clear
5:15 PM 39.2 °F 29.0 °F 19.4 °F 45% 30.06 in 10.0 mi South 21.9 mph 29.9 mph N/A   Clear
5:35 PM 39.2 °F 30.2 °F 19.4 °F 45% 30.04 in 10.0 mi South 17.3 mph 32.2 mph N/A   Clear
5:55 PM 39.2 °F 29.8 °F 19.4 °F 45% 30.02 in 10.0 mi South 18.4 mph 36.8 mph N/A   Clear
6:15 PM 39.2 °F 28.7 °F 21.2 °F 49% 30.01 in 10.0 mi South 23.0 mph 28.8 mph N/A   Scattered Clouds
6:35 PM 39.2 °F 29.8 °F 21.2 °F 49% 30.00 in 10.0 mi South 18.4 mph 25.3 mph N/A   Scattered Clouds
6:55 PM 39.2 °F 29.8 °F 23.0 °F 52% 30.01 in 10.0 mi South 18.4 mph 32.2 mph N/A   Mostly Cloudy
7:15 PM 39.2 °F 31.2 °F 24.8 °F 56% 30.00 in 10.0 mi South 13.8 mph 26.5 mph N/A   Scattered Clouds
7:35 PM 37.4 °F 28.2 °F 24.8 °F 60% 29.99 in 10.0 mi South 16.1 mph 21.9 mph N/A   Mostly Cloudy
7:55 PM 37.4 °F 27.5 °F 24.8 °F 60% 29.96 in 10.0 mi South 18.4 mph 26.5 mph N/A   Overcast
8:15 PM 37.4 °F 27.2 °F 26.6 °F 65% 29.95 in 10.0 mi South 19.6 mph 32.2 mph N/A   Overcast
8:35 PM 37.4 °F 29.3 °F 26.6 °F 65% 29.96 in 10.0 mi South 12.7 mph 19.6 mph N/A   Overcast
8:55 PM 37.4 °F 28.2 °F 26.6 °F 65% 29.96 in 10.0 mi South 16.1 mph 23.0 mph N/A   Overcast
9:15 PM 37.4 °F 28.2 °F 26.6 °F 65% 29.95 in 10.0 mi South 16.1 mph 24.2 mph N/A   Overcast
9:35 PM 37.4 °F 28.9 °F 26.6 °F 65% 29.95 in 10.0 mi South 13.8 mph 21.9 mph N/A   Mostly Cloudy
9:55 PM 37.4 °F 29.8 °F 28.4 °F 70% 29.94 in 10.0 mi South 11.5 mph 17.3 mph N/A   Mostly Cloudy
10:15 PM 37.4 °F 29.8 °F 28.4 °F 70% 29.94 in 10.0 mi South 11.5 mph 16.1 mph N/A   Overcast
10:35 PM 37.4 °F 32.1 °F 28.4 °F 70% 29.95 in 10.0 mi SSW 6.9 mph - N/A   Overcast
10:55 PM 37.4 °F 33.8 °F 28.4 °F 70% 29.95 in 10.0 mi SW 4.6 mph - N/A   Overcast
11:15 PM 37.4 °F 32.8 °F 28.4 °F 70% 29.95 in 10.0 mi South 5.8 mph - N/A   Overcast
11:35 PM 37.4 °F 30.3 °F 28.4 °F 70% 29.93 in 10.0 mi South 10.4 mph - N/A   Overcast
11:55 PM 37.4 °F 32.1 °F 28.4 °F 70% 29.93 in 10.0 mi South 6.9 mph - N/A   Overcast